• In Switzerland
  • List of Countries
  • For 7 days
  • Water Temperature
  • Satellite Maps
  • Weather Map
  • Weather Widgets
  • user-avatar
    Login

    Hourly Weather Chester

    Today, 20 October, Saturday

    Time Temperature Precipitation Wind Pressure Humidity
    00:00 +9°C° 0 mm 2 mps 770 mmHg 91%
    01:00 +9°C° 0 mm 2 mps 770 mmHg 92%
    02:00 +9°C° 0 mm 2 mps 770 mmHg 92%
    03:00 +9°C° 0 mm 2 mps 770 mmHg 92%
    04:00 +9°C° 0 mm 2 mps 770 mmHg 92%
    05:00 +9°C° 0 mm 2 mps 770 mmHg 92%
    06:00 +9°C° 0 mm 2 mps 771 mmHg 92%
    07:00 +10°C° 0 mm 3 mps 771 mmHg 91%
    08:00 +11°C° 0 mm 3 mps 771 mmHg 89%
    09:00 +12°C° 0 mm 3 mps 771 mmHg 87%
    10:00 +13°C° 0 mm 3 mps 771 mmHg 84%
    11:00 +14°C° 0 mm 3 mps 771 mmHg 80%
    12:00 +17°C° 0 mm 3 mps 771 mmHg 77%
    13:00 +17°C° 0 mm 3 mps 771 mmHg 77%
    14:00 +17°C° 0 mm 3 mps 771 mmHg 78%
    15:00 +17°C° 0 mm 3 mps 771 mmHg 78%
    16:00 +16°C° 0 mm 3 mps 771 mmHg 82%
    17:00 +14°C° 0 mm 3 mps 771 mmHg 86%
    18:00 +13°C° 0 mm 3 mps 771 mmHg 90%
    19:00 +12°C° 0 mm 3 mps 771 mmHg 91%
    20:00 +12°C° 0 mm 3 mps 771 mmHg 91%
    21:00 +13°C° 0 mm 2 mps 771 mmHg 92%
    22:00 +12°C° 0 mm 2 mps 770 mmHg 92%
    23:00 +12°C° 0 mm 2 mps 770 mmHg 93%

    Tomorrow, 21 October, Sunday

    Time Temperature Precipitation Wind Pressure Humidity
    00:00 +12°C° 0 mm 2 mps 770 mmHg 93%
    01:00 +12°C° 0 mm 2 mps 770 mmHg 93%
    02:00 +12°C° 0 mm 2 mps 769 mmHg 93%
    03:00 +11°C° 0 mm 3 mps 769 mmHg 93%
    04:00 +11°C° 0 mm 3 mps 769 mmHg 93%
    05:00 +11°C° 0 mm 3 mps 769 mmHg 94%
    06:00 +11°C° 0 mm 3 mps 768 mmHg 94%
    07:00 +12°C° 0.1 mm 4 mps 768 mmHg 92%
    08:00 +13°C° 0.1 mm 4 mps 768 mmHg 90%
    09:00 +13°C° 0.1 mm 4 mps 768 mmHg 88%
    10:00 +14°C° 0.1 mm 4 mps 768 mmHg 88%
    11:00 +14°C° 0.1 mm 4 mps 768 mmHg 88%
    12:00 +15°C° 0.1 mm 4 mps 768 mmHg 89%
    13:00 +14°C° 0.1 mm 5 mps 768 mmHg 89%
    14:00 +14°C° 0.1 mm 5 mps 768 mmHg 89%
    15:00 +14°C° 0.1 mm 5 mps 769 mmHg 89%
    16:00 +13°C° 0 mm 5 mps 770 mmHg 87%
    17:00 +12°C° 0 mm 5 mps 770 mmHg 85%
    18:00 +10°C° 0 mm 6 mps 771 mmHg 84%
    19:00 +9°C° 0 mm 5 mps 772 mmHg 83%
    20:00 +9°C° 0 mm 5 mps 773 mmHg 82%
    21:00 +8°C° 0 mm 5 mps 774 mmHg 81%
    22:00 +8°C° 0 mm 5 mps 774 mmHg 81%
    23:00 +7°C° 0 mm 4 mps 775 mmHg 80%

    Day after tomorrow, 22 October, Monday

    Time Temperature Precipitation Wind Pressure Humidity
    00:00 +7°C° 0 mm 4 mps 775 mmHg 80%
    01:00 +7°C° 0 mm 4 mps 776 mmHg 80%
    02:00 +7°C° 0 mm 4 mps 776 mmHg 79%
    03:00 +7°C° 0 mm 4 mps 776 mmHg 79%
    04:00 +7°C° 0 mm 3 mps 777 mmHg 80%
    05:00 +7°C° 0 mm 3 mps 777 mmHg 80%
    06:00 +7°C° 0 mm 3 mps 777 mmHg 80%
    07:00 +8°C° 0 mm 3 mps 778 mmHg 77%
    08:00 +9°C° 0 mm 3 mps 778 mmHg 74%
    09:00 +8°C° 0 mm 4 mps 779 mmHg 71%
    10:00 +10°C° 0 mm 4 mps 779 mmHg 68%
    11:00 +11°C° 0 mm 4 mps 779 mmHg 65%
    12:00 +12°C° 0 mm 4 mps 779 mmHg 63%
    13:00 +12°C° 0 mm 5 mps 778 mmHg 64%
    14:00 +10°C° 0 mm 5 mps 778 mmHg 66%
    15:00 +10°C° 0 mm 5 mps 778 mmHg 67%
    16:00 +9°C° 0 mm 5 mps 778 mmHg 73%
    17:00 +8°C° 0 mm 4 mps 778 mmHg 78%
    18:00 +7°C° 0 mm 4 mps 778 mmHg 83%
    19:00 +7°C° 0 mm 4 mps 778 mmHg 84%
    20:00 +7°C° 0 mm 5 mps 778 mmHg 85%
    21:00 +7°C° 0 mm 5 mps 778 mmHg 86%
    22:00 +7°C° 0 mm 5 mps 778 mmHg 86%
    23:00 +8°C° 0 mm 5 mps 777 mmHg 87%

    23 October, Tuesday

    Time Temperature Precipitation Wind Pressure Humidity
    00:00 +8°C° 0 mm 5 mps 777 mmHg 88%
    01:00 +8°C° 0 mm 6 mps 776 mmHg 88%
    02:00 +8°C° 0 mm 6 mps 776 mmHg 87%
    03:00 +9°C° 0 mm 6 mps 775 mmHg 87%
    04:00 +9°C° 0 mm 6 mps 775 mmHg 87%
    05:00 +9°C° 0 mm 6 mps 775 mmHg 86%
    06:00 +9°C° 0 mm 6 mps 774 mmHg 86%
    07:00 +9°C° 0 mm 7 mps 774 mmHg 85%
    08:00 +10°C° 0 mm 7 mps 774 mmHg 83%
    09:00 +10°C° 0 mm 7 mps 774 mmHg 82%
    10:00 +11°C° 0 mm 7 mps 774 mmHg 79%
    11:00 +11°C° 0 mm 7 mps 774 mmHg 77%
    12:00 +12°C° 0 mm 7 mps 773 mmHg 75%
    13:00 +12°C° 0 mm 7 mps 773 mmHg 75%
    14:00 +12°C° 0 mm 7 mps 773 mmHg 76%
    15:00 +12°C° 0 mm 7 mps 772 mmHg 76%
    16:00 +13°C° 0 mm 6 mps 772 mmHg 79%
    17:00 +11°C° 0 mm 6 mps 772 mmHg 82%
    18:00 +10°C° 0 mm 5 mps 772 mmHg 85%
    19:00 +10°C° 0 mm 5 mps 772 mmHg 86%
    20:00 +10°C° 0 mm 5 mps 773 mmHg 87%
    21:00 +10°C° 0 mm 5 mps 773 mmHg 88%
    22:00 +10°C° 0 mm 5 mps 773 mmHg 89%
    23:00 +10°C° 0 mm 5 mps 773 mmHg 89%

    24 October, Wednesday

    Time Temperature Precipitation Wind Pressure Humidity
    00:00 +10°C° 0 mm 5 mps 772 mmHg 90%
    01:00 +12°C° 0 mm 5 mps 772 mmHg 91%
    02:00 +12°C° 0 mm 5 mps 772 mmHg 91%
    03:00 +12°C° 0 mm 5 mps 772 mmHg 92%
    04:00 +12°C° 0 mm 5 mps 772 mmHg 92%
    05:00 +12°C° 0 mm 5 mps 772 mmHg 93%
    06:00 +12°C° 0 mm 4 mps 772 mmHg 93%
    07:00 +13°C° 0 mm 4 mps 772 mmHg 92%
    08:00 +13°C° 0 mm 4 mps 772 mmHg 92%
    09:00 +13°C° 0 mm 4 mps 772 mmHg 91%
    10:00 +14°C° 0 mm 4 mps 772 mmHg 89%
    11:00 +14°C° 0 mm 4 mps 772 mmHg 88%
    12:00 +15°C° 0 mm 4 mps 772 mmHg 86%
    13:00 +14°C° 0 mm 4 mps 772 mmHg 85%
    14:00 +14°C° 0 mm 4 mps 771 mmHg 84%
    15:00 +14°C° 0 mm 4 mps 771 mmHg 83%
    16:00 +13°C° 0 mm 4 mps 771 mmHg 85%
    17:00 +11°C° 0 mm 4 mps 771 mmHg 87%
    18:00 +10°C° 0 mm 4 mps 771 mmHg 89%
    19:00 +10°C° 0 mm 4 mps 771 mmHg 90%
    20:00 +8°C° 0 mm 4 mps 771 mmHg 90%
    21:00 +8°C° 0 mm 4 mps 771 mmHg 91%
    22:00 +8°C° 0 mm 4 mps 771 mmHg 91%
    23:00 +8°C° 0 mm 4 mps 770 mmHg 91%

    25 October, Thursday

    Time Temperature Precipitation Wind Pressure Humidity
    00:00 +8°C° 0 mm 3 mps 770 mmHg 91%
    01:00 +8°C° 0 mm 3 mps 770 mmHg 91%
    02:00 +8°C° 0 mm 3 mps 769 mmHg 92%
    03:00 +8°C° 0 mm 3 mps 769 mmHg 92%
    04:00 +8°C° 0 mm 3 mps 769 mmHg 92%
    05:00 +8°C° 0 mm 3 mps 769 mmHg 92%
    06:00 +8°C° 0 mm 3 mps 768 mmHg 92%
    07:00 +8°C° 0 mm 4 mps 768 mmHg 90%
    08:00 +8°C° 0 mm 4 mps 768 mmHg 89%
    09:00 +10°C° 0 mm 4 mps 768 mmHg 87%
    10:00 +10°C° 0 mm 4 mps 768 mmHg 84%
    11:00 +11°C° 0 mm 4 mps 768 mmHg 81%
    12:00 +10°C° 0 mm 5 mps 767 mmHg 78%
    13:00 +10°C° 0 mm 5 mps 767 mmHg 78%
    14:00 +10°C° 0 mm 5 mps 767 mmHg 78%
    15:00 +10°C° 0 mm 5 mps 766 mmHg 78%
    16:00 +10°C° 0 mm 5 mps 766 mmHg 80%
    17:00 +10°C° 0 mm 4 mps 766 mmHg 82%
    18:00 +10°C° 0 mm 4 mps 766 mmHg 84%
    19:00 +10°C° 0 mm 4 mps 766 mmHg 85%
    20:00 +10°C° 0 mm 4 mps 766 mmHg 86%
    21:00 +10°C° 0 mm 4 mps 766 mmHg 88%
    22:00 +9°C° 0.1 mm 5 mps 766 mmHg 87%
    23:00 +9°C° 0.1 mm 5 mps 766 mmHg 86%
    Show more